ONEWEB-0029, 45445

Orbit data source: Space-Track

ONEWEB-0029, 45445 is a payload satellite owned by One Web (UK) in LEO that was launched on Sat, 21 Mar 2020 UTC via a SOYUZ-2-1B launch vehicle from the Tyuratam Missile And Space Complex (TTMTR). Payloads include a variety of satellites, spacecraft, and rockets equipped with specific instruments for various scientific and technological missions. These include communications satellites like Starlink; space stations such as the ISS; scientific satellites like the Hubble; Earth observation satellites from companies like Planet Labs, Umbra, and HawkEye 360; GPS; miniature CubeSats for education and research; and military/defense satellites.

Loading next visibility...
ONEWEB-0029 details
Identifier
45445, 2020-020X
Orbit
LEO
Last TLE update15 hours ago
Origin
Flag of UKOne Web (UK)
ManufacturerOne Web
MissionOperational Commercial Communications
Bus & MotorARROW, Unknown motor
Mass148 kg wet, ~140 kg dry
Launch date (UTC)
2020-03-21 (5 years ago)
Launch vehicle
SOYUZ-2-1B
Launch site
Tyuratam Missile And Space Complex (TTMTR)
Object type
Payload
Rocket body
Debris
Shape & HBRTrap Box + 2 Pan, 5 m
Radar Cross Section2.957 m², Large (>1 m²)

Expand to show TLE details & history

TLE from 15 hours ago
0 ONEWEB-0029
1 45445U 20020X   24336.71233848 -.00000295  00000-0 -86731-3 0  9996
2 45445  87.8887 133.1338 0001650  88.9350 271.1967 13.11419403228931
Epoch: 2024-12-01T17:05Z
Definitive object data (Epoch: 2024-12-01T17:05:46.044Z)
Latitude-0.00003°
Longitude165.64533°
Altitude1,220.536 km
Speed7.244 km/s
True Right ascension08h 52m 32s
True Declination0° 00' 00"
Sunlit
Object was in daylight at TLE epoch
Visualization TLE readout
Latitude22.99792°
Longitude-15.37467°
Altitude1,220.028 km
Speed7.246 km/s
Apparent Right ascension19h 47m 18s
Apparent Declination-5° 39' 17"
Sunlit
Object is in daylight
Visualization observer readout
Local Sidereal Time06:18:49
Azimuth324.009° NNW
Elevation-50.38°
Doppler factor1
Orbital elements
Apogee altitude1,216.044 km
Perigee altitude1,213.539 km
Semi-major axis7,592.928 km
Eccentricity0.000165
Inclination87.8887°
RAAN133.1338°
Arg. of periapsis88.935°
True anomaly271.1778°
Mean anomaly271.1967°
Eccentric anomaly271.18725°
Mean motion3.28042 °/min
BSTAR-0.00086731
Orbital period109.74 mins
Loading maneuver chart data...
Loading historical data...
Loading historical data...
Loading historical data...
Loading historical data...
Loading historical data...
Loading historical data...
Loading historical data...

ONEWEB-0029 Visibility forecast

Observer location: undefined°, undefined

Span
Click to sort rows by Start time (UTC) header in descending order
Start Az.
Max El. time (UTC)
Max El. Az.
Max El.
End time (UTC)
End Az.
10 mins2024-12-02 09:42:34.425Z120.269° SE2024-12-02 09:47:34.425Z73.234° E21.485°2024-12-02 09:52:34.425Z28.492° NE
13 mins2024-12-02 11:30:34.425Z195.24° SSW2024-12-02 11:36:34.425Z271.093° WNW41.588°2024-12-02 11:43:34.425Z353.558° N
7 mins2024-12-02 21:12:34.425Z44.819° NE2024-12-02 21:15:34.425Z72.896° E17.344°2024-12-02 21:19:34.425Z109.053° ESE
13 mins2024-12-02 23:00:34.425Z355.375° N2024-12-02 23:06:34.425Z250.081° W44.213°2024-12-02 23:13:34.425Z187.818° SSW
|